Weather History for Juneau, WI

Change the Weather History Date:

Monday, September 30, 2013

  Actual Average Record
Temperature  
Mean Temperature 58 °F -  
Max Temperature 70 °F 63 °F 86 °F (1971)
Min Temperature 45 °F 44 °F 24 °F (1993)
Degree Days  
Heating Degree Days 8    
Growing Degree Days 8 (Base 50)    
Moisture  
Dew Point 41 °F    
Average Humidity 57    
Maximum Humidity 88    
Minimum Humidity 31    
Precipitation  
Precipitation 0.00 in - - ()
Sea Level Pressure  
Sea Level Pressure 29.93 in    
Wind  
Wind Speed 6 mph (SSE)    
Max Wind Speed 17 mph    
Max Gust Speed 22 mph    
Visibility 10 miles    
Events      
Averages and records for this station are not official NWS values.
T = Trace of Precipitation, MM = Missing Value Source: NWS Daily Summary

Daily Weather History Graph

Daily Weather History Graph

Search for Another Location

Airport:

Trip Planner

Search our weather history database for the weather conditions in past years. The results will help you decide how hot, cold, wet, or windy it might be!

Date:

Astronomy

Sep. 30, 2013 Rise Set
Actual Time 6:51 AM CDT 6:37 PM CDT
Civil Twilight 6:22 AM CDT 7:05 PM CDT
Nautical Twilight 5:49 AM CDT 7:38 PM CDT
Astronomical Twilight 5:16 AM CDT 8:12 PM CDT
Moon 2:21 AM CDT (9/30) 4:13 PM CDT (9/30)
Length of Visible Light 12h 42m
Length of Day
11h 45m
Waning Crescent, 19% of the Moon is Illuminated
Sep 30
Waning Crescent
Oct 4
New
Oct 11
First Quarter
Oct 18
Full
Oct 26
Last Quarter

Hourly Weather History & Observations

Time (CDT) Temp. Windchill Dew Point Humidity Pressure Visibility Wind Dir Wind Speed Gust Speed Precip Events Conditions
12:15 AM 49.1 °F - 42.1 °F 77% 30.02 in 10.0 mi Calm Calm - N/A   Clear
12:35 AM 49.5 °F - 41.5 °F 74% 30.02 in 10.0 mi Calm Calm - N/A   Clear
12:55 AM 50.0 °F - 41.5 °F 73% 30.01 in 10.0 mi Calm Calm - N/A   Clear
1:15 AM 48.4 °F - 41.9 °F 78% 30.01 in 10.0 mi ESE 4.6 mph - N/A   Clear
1:35 AM 47.5 °F - 41.5 °F 80% 30.01 in 10.0 mi ESE 4.6 mph - N/A   Clear
1:55 AM 48.0 °F - 41.7 °F 79% 30.01 in 10.0 mi SSE 3.5 mph - N/A   Clear
2:15 AM 47.7 °F - 41.9 °F 80% 30.01 in 10.0 mi ESE 5.8 mph - N/A   Clear
2:35 AM 47.3 °F - 41.9 °F 82% 30.01 in 10.0 mi SE 4.6 mph - N/A   Clear
2:55 AM 46.9 °F - 42.1 °F 83% 30.00 in 10.0 mi SE 4.6 mph - N/A   Clear
3:15 AM 46.4 °F 44.3 °F 42.3 °F 85% 30.00 in 10.0 mi SE 4.6 mph - N/A   Clear
3:35 AM 46.6 °F - 42.3 °F 85% 30.00 in 10.0 mi ESE 3.5 mph - N/A   Clear
3:55 AM 46.4 °F 43.5 °F 42.4 °F 86% 29.99 in 10.0 mi SE 5.8 mph - N/A   Clear
4:15 AM 46.0 °F 43.1 °F 42.3 °F 87% 30.00 in 10.0 mi SE 5.8 mph - N/A   Clear
4:35 AM 46.4 °F 44.3 °F 42.1 °F 85% 30.00 in 10.0 mi SE 4.6 mph - N/A   Clear
4:55 AM 45.9 °F 43.6 °F 42.1 °F 87% 30.00 in 10.0 mi SE 4.6 mph - N/A   Clear
5:15 AM 45.7 °F 43.4 °F 42.1 °F 87% 30.00 in 10.0 mi ESE 4.6 mph - N/A   Clear
5:35 AM 45.5 °F 42.5 °F 42.1 °F 88% 30.00 in 10.0 mi ESE 5.8 mph - N/A   Clear
5:55 AM 45.5 °F 42.5 °F 41.9 °F 87% 30.00 in 10.0 mi SE 5.8 mph - N/A   Clear
6:15 AM 45.3 °F 43.0 °F 41.9 °F 88% 30.00 in 10.0 mi SE 4.6 mph - N/A   Clear
6:35 AM 45.5 °F 43.2 °F 41.9 °F 87% 29.99 in 10.0 mi ESE 4.6 mph - N/A   Clear
6:55 AM 45.5 °F 42.5 °F 41.7 °F 87% 29.98 in 10.0 mi ESE 5.8 mph - N/A   Clear
7:15 AM 45.5 °F 42.5 °F 41.9 °F 87% 29.98 in 10.0 mi ESE 5.8 mph - N/A   Clear
7:35 AM 46.2 °F - 42.3 °F 86% 29.98 in 10.0 mi Calm Calm - N/A   Clear
7:55 AM 48.2 °F - 43.0 °F 82% 29.98 in 10.0 mi SE 3.5 mph - N/A   Clear
8:15 AM 50.4 °F - 44.6 °F 81% 29.98 in 10.0 mi SSE 3.5 mph - N/A   Clear
8:35 AM 53.2 °F - 41.0 °F 63% 29.98 in 10.0 mi South 4.6 mph - N/A   Scattered Clouds
8:55 AM 55.6 °F - 41.0 °F 58% 29.98 in 10.0 mi South 8.1 mph - N/A   Clear
9:15 AM 57.7 °F - 40.6 °F 53% 29.98 in 10.0 mi South 8.1 mph - N/A   Clear
9:35 AM 58.8 °F - 41.4 °F 52% 29.97 in 10.0 mi South 9.2 mph - N/A   Clear
9:55 AM 60.1 °F - 40.8 °F 49% 29.97 in 10.0 mi SSE 11.5 mph - N/A   Clear
10:15 AM 61.3 °F - 39.9 °F 45% 29.96 in 10.0 mi SSE 12.7 mph - N/A   Clear
10:35 AM 62.8 °F - 38.5 °F 41% 29.96 in 10.0 mi South 12.7 mph - N/A   Clear
10:55 AM 63.9 °F - 38.1 °F 39% 29.96 in 10.0 mi South 11.5 mph - N/A   Clear
11:15 AM 64.8 °F - 36.9 °F 36% 29.97 in 10.0 mi South 13.8 mph - N/A   Clear
11:35 AM 65.3 °F - 37.4 °F 36% 29.96 in 10.0 mi South 11.5 mph - N/A   Clear
11:55 AM 66.2 °F - 38.5 °F 36% 29.95 in 10.0 mi SSE 13.8 mph - N/A   Clear
12:15 PM 67.1 °F - 37.4 °F 34% 29.95 in 10.0 mi SSE 12.7 mph 16.1 mph N/A   Clear
12:35 PM 67.3 °F - 37.0 °F 33% 29.95 in 10.0 mi South 12.7 mph - N/A   Clear
12:55 PM 68.2 °F - 37.0 °F 32% 29.94 in 10.0 mi South 17.3 mph - N/A   Clear
1:15 PM 68.2 °F - 37.9 °F 33% 29.93 in 10.0 mi South 13.8 mph - N/A   Clear
1:35 PM 68.5 °F - 39.2 °F 34% 29.91 in 10.0 mi South 13.8 mph - N/A   Clear
1:55 PM 69.1 °F - 38.7 °F 33% 29.91 in 10.0 mi South 16.1 mph 21.9 mph N/A   Clear
2:15 PM 69.6 °F - 37.8 °F 31% 29.90 in 10.0 mi South 15.0 mph 18.4 mph N/A   Clear
2:35 PM 70.3 °F - 39.9 °F 33% 29.89 in 10.0 mi South 12.7 mph - N/A   Clear
2:55 PM 69.3 °F - 38.5 °F 32% 29.89 in 10.0 mi South 15.0 mph 20.7 mph N/A   Clear
3:15 PM 69.3 °F - 39.4 °F 34% 29.88 in 10.0 mi South 12.7 mph - N/A   Clear
3:35 PM 70.0 °F - 39.9 °F 33% 29.88 in 10.0 mi South 13.8 mph - N/A   Clear
3:55 PM 70.7 °F - 40.6 °F 34% 29.87 in 10.0 mi South 10.4 mph 16.1 mph N/A   Clear
4:15 PM 70.7 °F - 39.0 °F 32% 29.86 in 10.0 mi SSE 16.1 mph 19.6 mph N/A   Clear
4:35 PM 70.7 °F - 38.3 °F 31% 29.86 in 10.0 mi South 11.5 mph - N/A   Clear
4:55 PM 70.2 °F - 39.2 °F 32% 29.85 in 10.0 mi South 12.7 mph - N/A   Clear
5:15 PM 70.0 °F - 38.8 °F 32% 29.84 in 10.0 mi South 12.7 mph 18.4 mph N/A   Clear
5:35 PM 69.1 °F - 40.3 °F 35% 29.84 in 10.0 mi South 10.4 mph - N/A   Clear
5:55 PM 68.0 °F - 40.3 °F 36% 29.85 in 10.0 mi South 6.9 mph - N/A   Clear
6:15 PM 66.2 °F - 41.9 °F 41% 29.85 in 10.0 mi South 8.1 mph - N/A   Clear
6:35 PM 65.1 °F - 40.6 °F 41% 29.85 in 10.0 mi SSE 8.1 mph - N/A   Clear
6:55 PM 63.7 °F - 40.8 °F 43% 29.85 in 10.0 mi SSE 9.2 mph - N/A   Clear
7:15 PM 63.0 °F - 41.5 °F 45% 29.84 in 10.0 mi SSE 10.4 mph - N/A   Clear
7:35 PM 62.1 °F - 41.2 °F 46% 29.84 in 10.0 mi SE 11.5 mph - N/A   Clear
7:55 PM 60.6 °F - 41.4 °F 49% 29.84 in 10.0 mi SE 10.4 mph - N/A   Clear
8:15 PM 59.9 °F - 41.5 °F 51% 29.84 in 10.0 mi SE 11.5 mph - N/A   Clear
8:35 PM 59.0 °F - 41.9 °F 53% 29.84 in 10.0 mi SE 9.2 mph - N/A   Clear
8:55 PM 58.1 °F - 41.9 °F 55% 29.84 in 10.0 mi SE 11.5 mph - N/A   Clear
9:15 PM 59.0 °F - 41.4 °F 52% 29.84 in 10.0 mi SSE 11.5 mph - N/A   Clear
9:35 PM 59.0 °F - 41.2 °F 52% 29.84 in 10.0 mi SSE 11.5 mph - N/A   Clear
9:55 PM 57.6 °F - 41.9 °F 56% 29.84 in 10.0 mi SSE 8.1 mph - N/A   Clear
10:15 PM 57.9 °F - 41.9 °F 55% 29.85 in 10.0 mi SSE 9.2 mph - N/A   Clear
10:35 PM 57.4 °F - 42.3 °F 57% 29.85 in 10.0 mi SSE 10.4 mph - N/A   Clear
10:55 PM 57.6 °F - 42.4 °F 57% 29.85 in 10.0 mi SSE 9.2 mph - N/A   Clear
11:15 PM 57.0 °F - 42.8 °F 59% 29.85 in 10.0 mi South 8.1 mph - N/A   Clear
11:35 PM 56.7 °F - 43.3 °F 61% 29.86 in 10.0 mi South 9.2 mph - N/A   Clear
11:55 PM 57.2 °F - 43.7 °F 61% 29.86 in 10.0 mi South 6.9 mph - N/A   Clear